FW1358 Weather Reports


time (UTC)temp
C
wind
direction
speed
KPH
gust
KPH
rain 1hr
cm
rain 24hr
cm
rain mn
cm
humidity
%
barometer
mb
20240222121303 12 219 0.0 4.8 0.00 0.00 0.00 74 1013.0
20240222120803 12 213 0.0 4.8 0.00 0.00 0.00 74 1013.2
20240222112803 13 274 0.0 4.8 0.00 0.00 0.00 72 1013.5
20240222112306 13 318 0.0 3.2 0.00 0.00 0.00 72 1013.5
20240222104303 13 208 0.0 8.0 0.00 0.00 0.00 70 1013.4
20240222103303 13 357 0.0 4.8 0.00 0.00 0.00 70 1013.3
20240222102305 13 215 0.0 4.8 0.00 0.00 0.00 69 1013.6
20240222095305 13 238 0.0 1.6 0.00 0.00 0.00 68 1013.5
20240222094303 13 352 0.0 3.2 0.00 0.00 0.00 67 1013.5
20240222093802 13 352 0.0 3.2 0.00 0.00 0.00 66 1013.5
20240222093303 13 241 0.0 8.0 0.00 0.00 0.00 66 1013.5
20240222092305 13 223 0.0 4.8 0.00 0.00 0.00 66 1013.4
20240222091803 13 272 0.0 4.8 0.00 0.00 0.00 65 1013.4
20240222090303 14 42 0.0 3.2 0.00 0.00 0.00 64 1013.5
20240222084303 14 278 0.0 3.2 0.00 0.00 0.00 63 1013.9
20240222081802 14 232 0.0 3.2 0.00 0.00 0.00 62 1014.0
20240222081303 14 214 0.0 4.8 0.00 0.00 0.00 61 1014.1
20240222080803 14 293 0.0 4.8 0.00 0.00 0.00 61 1014.3
20240222080302 14 224 0.0 3.2 0.00 0.00 0.00 60 1014.3
20240222075803 14 224 0.0 9.7 0.00 0.00 0.00 60 1014.4
20240222074803 14 314 0.0 3.2 0.00 0.00 0.00 59 1014.6
20240222074303 15 314 0.0 4.8 0.00 0.00 0.00 59 1014.6
20240222073802 14 242 0.0 4.8 0.00 0.00 0.00 58 1014.6
20240222072305 15 221 0.0 1.6 0.00 0.00 0.00 57 1014.6
20240222071302 15 305 1.6 19.3 0.00 0.00 0.00 57 1014.6
20240222070803 15 234 0.0 19.3 0.00 0.00 0.00 56 1014.7
20240222064803 14 220 0.0 9.7 0.00 0.00 0.00 55 1014.6
20240222063303 14 136 0.0 3.2 0.00 0.00 0.00 55 1014.7
20240222061303 14 234 0.0 1.6 0.00 0.00 0.00 54 1014.7
20240222060812 14 223 0.0 1.6 0.00 0.00 0.00 55 1014.8
20240222054803 14 225 0.0 0.0 0.00 0.00 0.00 54 1014.8
20240222053803 14 225 0.0 1.6 0.00 0.00 0.00 54 1014.7
20240222053303 14 219 0.0 1.6 0.00 0.00 0.00 53 1014.9
20240222052802 14 219 0.0 0.0 0.00 0.00 0.00 53 1014.8
20240222052305 14 219 0.0 0.0 0.00 0.00 0.00 53 1014.8
20240222051803 14 219 0.0 3.2 0.00 0.00 0.00 53 1014.8
20240222051303 14 219 0.0 3.2 0.00 0.00 0.00 52 1014.9
20240222050803 14 216 0.0 0.0 0.00 0.00 0.00 52 1015.0
20240222045306 14 222 0.0 1.6 0.00 0.00 0.00 51 1015.2
20240222044802 14 227 0.0 1.6 0.00 0.00 0.00 51 1015.3
20240222044303 15 227 0.0 4.8 0.00 0.00 0.00 51 1015.3
20240222041803 15 203 0.0 1.6 0.00 0.00 0.00 50 1015.0
20240222040303 15 215 0.0 4.8 0.00 0.00 0.00 50 1015.1
20240222035803 15 216 0.0 4.8 0.00 0.00 0.00 49 1015.3
20240222035306 15 226 0.0 4.8 0.00 0.00 0.00 49 1015.5
20240222033303 15 220 0.0 3.2 0.00 0.00 0.00 48 1015.6
20240222032803 15 216 0.0 3.2 0.00 0.00 0.00 48 1015.7
20240222032306 15 213 0.0 1.6 0.00 0.00 0.00 48 1015.8
20240222031803 15 220 0.0 4.8 0.00 0.00 0.00 48 1015.9
20240222030803 15 215 0.0 4.8 0.00 0.00 0.00 48 1016.0
20240222030303 15 215 0.0 4.8 0.00 0.00 0.00 48 1016.1
20240222025803 15 227 0.0 4.8 0.00 0.00 0.00 48 1016.2
20240222025305 14 227 0.0 4.8 0.00 0.00 0.00 48 1016.2
20240222024803 14 220 0.0 1.6 0.00 0.00 0.00 48 1016.0
20240222023303 14 209 0.0 1.6 0.00 0.00 0.00 48 1016.1
20240222022803 14 209 0.0 3.2 0.00 0.00 0.00 48 1016.1
20240222020303 14 213 0.0 0.0 0.00 0.00 0.00 48 1016.2
20240222015803 14 213 0.0 3.2 0.00 0.00 0.00 48 1016.2
20240222015306 14 213 0.0 3.2 0.00 0.00 0.00 47 1016.2
20240222013303 15 211 0.0 0.0 0.00 0.00 0.00 46 1016.4
20240222012804 15 211 0.0 0.0 0.00 0.00 0.00 46 1016.4
20240222012305 15 211 0.0 0.0 0.00 0.00 0.00 46 1016.4
20240222010803 15 211 0.0 0.0 0.00 0.00 0.00 46 1016.3
20240222005803 15 211 0.0 0.0 0.00 0.00 0.00 46 1016.4
20240222005306 15 211 0.0 0.0 0.00 0.00 0.00 46 1016.5
20240222004803 15 211 0.0 0.0 0.00 0.00 0.00 45 1016.5
20240222003803 16 211 0.0 0.0 0.00 0.00 0.00 46 1016.6
20240222002306 16 211 0.0 0.0 0.00 0.00 0.00 45 1016.6
20240222001803 16 211 0.0 0.0 0.00 0.00 0.00 44 1016.8
20240222001303 16 211 0.0 0.0 0.00 0.00 0.00 44 1016.7
20240222000803 16 211 0.0 0.0 0.00 0.00 0.00 44 1016.7
20240222000303 16 211 0.0 0.0 0.00 0.00 0.00 44 1016.8
20240221235803 16 211 0.0 1.6 0.00 0.00 0.00 44 1016.8
20240221233803 17 215 0.0 1.6 0.00 0.00 0.00 43 1017.2
20240221233303 17 215 0.0 1.6 0.00 0.00 0.00 43 1017.1
20240221231804 17 207 0.0 0.0 0.00 0.00 0.00 41 1017.1
20240221230803 17 207 0.0 1.6 0.00 0.00 0.00 40 1017.1
20240221225803 18 217 0.0 8.0 0.00 0.00 0.00 41 1017.3
20240221225306 18 232 0.0 4.8 0.00 0.00 0.00 40 1017.4
20240221224804 18 169 0.0 12.9 0.00 0.00 0.00 40 1017.5
20240221222803 19 217 0.0 16.1 0.00 0.00 0.00 39 1017.7
20240221222306 19 219 3.2 16.1 0.00 0.00 0.00 38 1017.7
20240221221803 19 231 0.0 9.7 0.00 0.00 0.00 39 1017.7
20240221221303 19 211 1.6 11.3 0.00 0.00 0.00 38 1017.8
20240221220803 19 212 1.6 11.3 0.00 0.00 0.00 38 1017.8
20240221220302 20 189 0.0 8.0 0.00 0.00 0.00 38 1018.1
20240221215802 20 214 0.0 8.0 0.00 0.00 0.00 38 1018.1
20240221215306 20 202 0.0 12.9 0.00 0.00 0.00 38 1018.3
20240221214303 20 228 0.0 4.8 0.00 0.00 0.00 36 1018.4
20240221213802 20 23 0.0 4.8 0.00 0.00 0.00 37 1018.4
20240221213303 20 229 0.0 14.5 0.00 0.00 0.00 36 1018.4
20240221211303 20 219 0.0 8.0 0.00 0.00 0.00 35 1018.5
20240221210304 21 230 0.0 12.9 0.00 0.00 0.00 36 1018.6
20240221205803 20 218 1.6 12.9 0.00 0.00 0.00 36 1018.7
20240221205305 20 242 0.0 9.7 0.00 0.00 0.00 36 1018.8
20240221204803 20 230 0.0 14.5 0.00 0.00 0.00 36 1018.9
20240221204302 20 221 3.2 14.5 0.00 0.00 0.00 36 1018.8
20240221203803 20 214 1.6 14.5 0.00 0.00 0.00 35 1018.8
20240221203303 20 222 1.6 14.5 0.00 0.00 0.00 36 1018.9
20240221202305 20 260 0.0 11.3 0.00 0.00 0.00 35 1019.1
20240221201303 21 210 0.0 12.9 0.00 0.00 0.00 36 1019.4
20240221200803 21 221 0.0 12.9 0.00 0.00 0.00 35 1019.6
20240221200303 21 230 1.6 12.9 0.00 0.00 0.00 35 1019.6
20240221194803 21 225 0.0 8.0 0.00 0.00 0.00 37 1020.0
20240221193803 20 231 1.6 11.3 0.00 0.00 0.00 36 1020.2
20240221192305 20 339 0.0 4.8 0.00 0.00 0.00 36 1020.2
20240221190803 20 327 0.0 12.9 0.00 0.00 0.00 37 1020.6
20240221190303 20 217 0.0 16.1 0.00 0.00 0.00 38 1020.6
20240221185803 20 218 1.6 16.1 0.00 0.00 0.00 38 1020.7
20240221184803 20 248 0.0 4.8 0.00 0.00 0.00 39 1021.0
20240221184303 20 215 0.0 4.8 0.00 0.00 0.00 38 1021.2
20240221180803 20 203 0.0 1.6 0.00 0.00 0.00 37 1022.1
20240221180303 20 314 0.0 1.6 0.00 0.00 0.00 39 1022.3
20240221175803 19 314 0.0 4.8 0.00 0.00 0.00 40 1022.4
20240221172803 19 271 0.0 4.8 0.00 0.00 0.00 39 1023.0
20240221170803 18 300 0.0 9.7 0.00 0.00 0.00 39 1023.3
20240221164803 18 221 0.0 3.2 0.00 0.00 0.00 39 1023.6
20240221161803 17 263 0.0 1.6 0.00 0.00 0.00 42 1023.8
20240221155803 15 221 0.0 4.8 0.00 0.00 0.00 46 1024.1
20240221154303 14 224 0.0 3.2 0.00 0.00 0.00 48 1024.4
20240221153304 13 224 0.0 1.6 0.00 0.00 0.00 53 1024.5
20240221152305 11 306 0.0 0.0 0.00 0.00 0.00 58 1024.7
20240221151303 10 306 0.0 0.0 0.00 0.00 0.00 61 1024.7
20240221150802 9 306 0.0 0.0 0.00 0.00 0.00 61 1024.8
20240221144803 7 306 0.0 0.0 0.00 0.00 0.00 66 1024.9
20240221142306 5 306 0.0 0.0 0.00 0.00 0.00 71 1024.9
20240221141304 4 306 0.0 0.0 0.00 0.00 0.00 72 1025.0
20240221140803 3 306 0.0 0.0 0.00 0.00 0.00 74 1024.9
20240221135803 3 306 0.0 0.0 0.00 0.00 0.00 74 1024.8
20240221135305 3 306 0.0 0.0 0.00 0.00 0.00 74 1024.9
20240221134303 2 306 0.0 0.0 0.00 0.00 0.00 75 1024.7
20240221133803 2 306 0.0 0.0 0.00 0.00 0.00 74 1024.7
20240221133304 2 306 0.0 0.0 0.00 0.00 0.00 73 1024.7
20240221132803 2 306 0.0 0.0 0.00 0.00 0.00 72 1024.8
20240221131803 2 306 0.0 0.0 0.00 0.00 0.00 73 1024.9
20240221131303 2 306 0.0 0.0 0.00 0.00 0.00 72 1024.8
20240221123304 2 306 0.0 0.0 0.00 0.00 0.00 71 1024.7
20240221122803 2 306 0.0 0.0 0.00 0.00 0.00 71 1024.8
20240221121803 2 306 0.0 0.0 0.00 0.00 0.00 71 1024.7